Location: Newark
(48.3453°N, 0.5589°E)
Time: 16:44:56
(UTC+00:00)

A-11 Canister half - Pass Details

Date: 07 December 2019
Orbit: 1516 x 1683 km, 47.2° (Epoch: 20 January)

Event Time Altitude Azimuth Distance (km) Brightness Sun altitude
Rises 11:10:29 0° 193° (SSW) 4,728 12.8 18.5°
Reaches altitude 10° 11:14:13 10° 181° (S) 3,774 13.2 18.6°
Maximum altitude 11:21:29 25° 131° (SE) 2,824 11.3 18.8°
Drops below altitude 10° 11:28:56 10° 81° (E) 3,887 11.1 18.9°
Sets 11:32:50 0° 70° (ENE) 4,900 11.5 19.0°
